METEOR 1-17 DEB

Satellite information

Favourite Embed

Satellite Type and Status

DEBRISIN ORBIT

Key statistics

Satellite METEOR 1-17 DEB at a glance.

Uptime

18640

Days in orbit

Revolutions

≈ 14.2

Per day

Orbit

LEO

Low Earth Orbit

Inclination

81.2

Latest

Satellite identification and parameters

Extended collection of information and parameters for METEOR 1-17 DEB.

Object identification

Identified? True

Debris? True

Object name: METEOR 1-17 DEB

International designator: 1974-025G

Object number (NORAD): 57541

Object ID (CCSDS): 57541

Country: COMMONWEALTH OF INDEPENDENT STATES (CIS)

Current information (Y/N): Y

RCS size: SMALL

Orbital parameters

Period: 101.361 minutes

Inclination: 81.2104 deg

SMA: 7201.246 km

Apoapsis: 836.713 km

Periapsis: 809.509 km

RAAN: 329.7387 deg

Eccentricy: 0.0018888

Argument of periapsis: 30.9742 deg

Mean anomaly: 329.2544 deg

Mean motion: 14.20663696 rev/day

Mean motion (dot): 0.00003925 rev/day2

B* drag term: 0.0018138 1/REarth

Two-line elements (TLE)

Creation date: May 6, 2025, 3:54 a.m.

Reference frame: TEME

Reference center: EARTH

Epoch: May 5, 2025, 6:59 a.m. UTC

TLE line 0: 0 METEOR 1-17 DEB

TLE line 1: 1 57541U 74025G 25125.29102912 .00003925 00000-0 18138-2 0 9993

TLE line 2: 2 57541 81.2104 329.7387 0018888 30.9742 329.2544 14.20663696 96273

Live tracking on map

Real-time ground track for satellite METEOR 1-17 DEB.

In-orbit conjunctions

A list of the most updated potential collisions computed for object METEOR 1-17 DEB.

Target Orbit TCA Probability of collision Miss distance Type
THOR BURNER 2A R/B SSO 2025-03-10 06:37:16 0.0001239316 184.0 (m) ROCKET BODY
CZ-6A DEB LEO 2024-11-17 04:51:28 0.0001128748 725.0 (m) DEBRIS
CZ-6A DEB SSO 2024-11-14 07:28:17 0.0002347908 817.0 (m) DEBRIS
NOAA 16 DEB SSO 2024-11-09 00:20:06 0.0001469446 637.0 (m) DEBRIS

Associated space launch

The Meteor-1 series was the first series of Soviet meteorological satellites.

METEOR 1-17 DEB was lifted into orbit during the mission ‘Vostok 8A92M | Meteor-1 17 (22L)’, on board a Vostok 8A92M space rocket.

The launch took place on April 24, 1974, 11:50 a.m. from 43/4 (43R).

For more information about the launch, click the button.

Launch to space Vostok 8A92M | Meteor-1 17 (22L)
Vostok 8A92M | Meteor-1 17 (22L)

Agency: N/A

Status: Launch Successful

Launch date: April 24, 1974, 11:50 a.m. UTC

Rocket: Vostok 8A92M

Launch pad: 43/4 (43R)

Location: Plesetsk Cosmodrome, Russian Federation

...

Latest news about this satellite

There are no fresh news available about this satellite. Check back as we update our databases every day.


Newsletter sign-up

Weekly statistics, charts and insights to help you stay on top of the space industry.